Troy, AL

12:18 PM CDT on March 28, 2017 (GMT -0500)
Troy Municipal

Weather History for KTOI - January, 2013

Change the Weather History Date:

Tuesday, January 15, 2013

  Actual Average Record
Temperature  
Mean Temperature 66 °F 46 °F  
Max Temperature 78 °F 58 °F 78 °F (2013)
Min Temperature 53 °F 35 °F 19 °F (2011)
Degree Days  
Heating Degree Days 0 19  
Month to date heating degree days 146 285  
Since 1 July heating degree days 985 1202  
Growing Degree Days 16 (Base 50)    
Moisture  
Dew Point 64 °F    
Average Humidity 81    
Maximum Humidity 100    
Minimum Humidity 62    
Precipitation  
Precipitation 0.22 in 0.13 in 0.61 in (1998)
Month to date precipitation 1.00 2.13  
Year to date precipitation 1.00 2.13  
Snow  
Snow 0.00 in - - ()
Month to date snowfall 0.0  
Since 1 July snowfall 0.0  
Snow Depth 0.00 in    
Sea Level Pressure  
Sea Level Pressure 30.01 in    
Wind  
Wind Speed 7 mph (South)    
Max Wind Speed 18 mph    
Max Gust Speed 25 mph    
Visibility 4 miles    
Events Fog , Rain    
T = Trace of Precipitation, MM = Missing Value Source: NWS Daily Summary

Daily Weather History Graph

Daily Weather History Graph

Search for Another Location

Airport or City:

Trip Planner

Search our weather history database for the weather conditions in past years. The results will help you decide how hot, cold, wet, or windy it might be!

Date:

Astronomy

Jan. 15, 2013 Rise Set
Actual Time 6:44 AM CST 5:02 PM CST
Civil Twilight 6:18 AM CST 5:29 PM CST
Nautical Twilight 5:48 AM CST 5:59 PM CST
Astronomical Twilight 5:18 AM CST 6:28 PM CST
Moon 9:08 AM CST (1/15) 9:31 PM CST (1/15)
Length of Visible Light 11h 11m
Length of Day
10h 18m
Waxing Crescent, 19% of the Moon is Illuminated
Jan 15
Waxing Crescent
Jan 18
First Quarter
Jan 26
Full
Feb 3
Last Quarter
Feb 10
New

Hourly Weather History & Observations

Time (CST) Temp. Dew Point Humidity Pressure Visibility Wind Dir Wind Speed Gust Speed Precip Events Conditions
12:53 AM 54.0 °F 53.1 °F 97% 30.08 in 1.5 mi Calm Calm - N/A   Overcast
1:00 AM 53.6 °F 53.6 °F 100% 30.08 in 1.0 mi Calm Calm - N/A   Overcast
1:11 AM 53.6 °F 53.6 °F 100% 30.08 in 0.8 mi Calm Calm - N/A   Overcast
1:42 AM 55.4 °F 53.6 °F 94% 30.07 in 0.5 mi ESE 3.5 mph - N/A Fog Fog
1:53 AM 55.0 °F 54.0 °F 96% 30.06 in 0.5 mi ESE 3.5 mph - N/A Fog Fog
2:13 AM 55.4 °F 53.6 °F 94% 30.05 in 0.5 mi East 4.6 mph - N/A Fog Fog
2:29 AM 55.4 °F 55.4 °F 100% 30.05 in 0.8 mi ESE 3.5 mph - N/A   Overcast
2:53 AM 57.9 °F 57.0 °F 97% 30.04 in 1.0 mi Calm Calm - N/A   Overcast
3:21 AM 60.8 °F 59.0 °F 94% 30.05 in 0.8 mi Calm Calm - N/A   Overcast
3:53 AM 63.0 °F 61.0 °F 93% 30.03 in 1.0 mi SSE 5.8 mph - N/A   Overcast
4:10 AM 62.6 °F 62.6 °F 100% 30.05 in 1.2 mi SSE 6.9 mph - N/A   Overcast
4:38 AM 64.4 °F 62.6 °F 94% 30.04 in 1.8 mi South 5.8 mph - N/A   Overcast
4:48 AM 64.4 °F 62.6 °F 94% 30.04 in 2.5 mi South 6.9 mph - N/A   Overcast
4:53 AM 64.0 °F 63.0 °F 96% 30.03 in 2.5 mi South 4.6 mph - N/A   Overcast
5:01 AM 64.4 °F 62.6 °F 94% 30.04 in 3.0 mi South 4.6 mph - N/A   Overcast
5:15 AM 64.4 °F 62.6 °F 94% 30.04 in 3.0 mi South 5.8 mph - N/A   Overcast
5:53 AM 64.9 °F 64.0 °F 97% 30.03 in 4.0 mi SSE 6.9 mph - N/A   Overcast
6:08 AM 64.4 °F 64.4 °F 100% 30.05 in 4.0 mi South 4.6 mph - N/A   Overcast
6:53 AM 66.0 °F 64.0 °F 93% 30.05 in 5.0 mi South 4.6 mph - N/A   Overcast
7:53 AM 66.9 °F 64.9 °F 93% 30.06 in 4.0 mi South 8.1 mph - N/A   Overcast
8:26 AM 66.2 °F 64.4 °F 94% 30.06 in 4.0 mi South 8.1 mph - N/A   Overcast
8:53 AM 68.0 °F 64.9 °F 90% 30.06 in 4.0 mi South 10.4 mph - N/A   Overcast
9:53 AM 69.1 °F 64.9 °F 87% 30.06 in 5.0 mi South 8.1 mph - N/A   Overcast
10:18 AM 69.8 °F 64.4 °F 83% 30.05 in 5.0 mi South 8.1 mph - N/A   Overcast
10:53 AM 70.0 °F 66.0 °F 87% 30.03 in 5.0 mi South 10.4 mph - N/A   Overcast
11:53 AM 73.0 °F 66.0 °F 79% 29.99 in 7.0 mi SSW 9.2 mph - N/A   Overcast
12:53 PM 75.9 °F 64.9 °F 69% 29.98 in 8.0 mi SSW 10.4 mph 21.9 mph N/A   Mostly Cloudy
1:53 PM 78.1 °F 64.0 °F 62% 29.96 in 9.0 mi South 13.8 mph 19.6 mph N/A   Mostly Cloudy
2:44 PM 71.6 °F 64.4 °F 78% 29.98 in 1.5 mi West 9.2 mph 19.6 mph 0.04 in Rain Rain
2:46 PM 71.6 °F 66.2 °F 83% 29.98 in 1.0 mi SW 6.9 mph 19.6 mph 0.05 in Rain Heavy Rain
2:53 PM 70.0 °F 66.0 °F 87% 29.97 in 0.8 mi South 10.4 mph - 0.08 in Rain Rain
2:56 PM 71.6 °F 66.2 °F 83% 29.98 in 1.2 mi SSW 9.2 mph - 0.00 in Rain Light Rain
2:59 PM 71.6 °F 66.2 °F 83% 29.98 in 2.0 mi SW 6.9 mph - 0.00 in Rain Light Rain
3:01 PM 71.6 °F 66.2 °F 83% 29.98 in 4.0 mi SW 6.9 mph - 0.00 in Rain Light Rain
3:07 PM 71.6 °F 66.2 °F 83% 29.99 in 1.8 mi SSW 5.8 mph - 0.02 in Rain Light Rain
3:09 PM 71.6 °F 66.2 °F 83% 29.99 in 1.2 mi SW 4.6 mph - 0.02 in Rain Rain
3:30 PM 71.6 °F 66.2 °F 83% 30.00 in 6.0 mi SSW 5.8 mph 16.1 mph 0.02 in   Overcast
3:53 PM 70.0 °F 66.9 °F 90% 29.99 in 7.0 mi SSW 6.9 mph - 0.02 in   Overcast
4:32 PM 71.6 °F 66.2 °F 83% 30.00 in 8.0 mi South 10.4 mph - N/A   Overcast
4:53 PM 70.0 °F 66.0 °F 87% 29.99 in 8.0 mi South 9.2 mph - N/A   Overcast
5:02 PM 69.8 °F 66.2 °F 88% 30.01 in 8.0 mi South 6.9 mph - N/A   Overcast
5:49 PM 69.8 °F 66.2 °F 88% 30.00 in 9.0 mi South 9.2 mph - N/A   Overcast
5:53 PM 70.0 °F 66.0 °F 87% 29.99 in 9.0 mi South 6.9 mph - N/A   Overcast
6:53 PM 69.1 °F 66.0 °F 90% 29.99 in 8.0 mi South 6.9 mph - N/A   Overcast
7:09 PM 69.8 °F 66.2 °F 88% 30.00 in 8.0 mi South 6.9 mph - N/A   Overcast
7:21 PM 69.8 °F 66.2 °F 88% 29.99 in 8.0 mi South 6.9 mph - N/A   Overcast
7:53 PM 69.1 °F 66.0 °F 90% 29.98 in 6.0 mi South 6.9 mph - N/A   Overcast
8:19 PM 69.8 °F 66.2 °F 88% 29.99 in 6.0 mi South 6.9 mph - N/A   Overcast
8:35 PM 69.8 °F 66.2 °F 88% 29.99 in 5.0 mi South 8.1 mph - N/A   Overcast
8:53 PM 68.0 °F 66.0 °F 93% 29.96 in 6.0 mi South 10.4 mph - 0.00 in   Overcast
9:26 PM 69.8 °F 66.2 °F 88% 29.98 in 4.0 mi South 10.4 mph 17.3 mph 0.00 in Rain Light Rain
9:33 PM 69.8 °F 66.2 °F 88% 29.98 in 3.0 mi South 8.1 mph 17.3 mph 0.01 in Rain Light Rain
9:53 PM 68.0 °F 66.0 °F 93% 29.96 in 5.0 mi South 8.1 mph - 0.02 in   Overcast
10:53 PM 68.0 °F 66.0 °F 93% 29.95 in 4.0 mi South 9.2 mph - 0.00 in   Overcast
11:36 PM 68.0 °F 66.2 °F 94% 29.95 in 2.0 mi SSE 9.2 mph - 0.00 in Rain Light Rain
11:40 PM 68.0 °F 66.2 °F 94% 29.95 in 1.5 mi South 9.2 mph 17.3 mph 0.01 in Rain Light Rain
11:45 PM 68.0 °F 66.2 °F 94% 29.95 in 1.0 mi South 10.4 mph - 0.04 in Rain Rain
11:53 PM 68.0 °F 66.0 °F 93% 29.94 in 1.0 mi South 8.1 mph - 0.08 in Rain Rain